Find Local Weather

World > North America > United States > California

La Jolla, California Regional Weather

Lat: 32.85N, Lon: 117.27W
Wx Zone: CAZ043
Feedback
Expires:201804270100;;082847
ASUS46 KSGX 270011
RWRSGX

SAN DIEGO HOURLY WEATHER ROUNDUP
NATIONAL WEATHER SERVICE SAN DIEGO CA
500 PM PDT THU APR 26 2018

NOTE: "FAIR" INDICATES FEW OR NO CLOUDS BELOW 12,000 FEET WITH NO 
SIGNIFICANT WEATHER AND/OR OBSTRUCTIONS TO VISIBILITY.


CAZ042-043-060-061-PZZ750-775-270100-

GREATER SAN DIEGO AREA
  
CITY           SKY/WX    TMP DP  RH WIND       PRES   REMARKS
SAN DIEGO AP   MOSUNNY   64  51  62 NW12      30.00F                  
NATIONAL CITY    N/A     65  55  70 NW2       29.99F                  
CHULA VISTA      N/A     64  55  72 W12       29.90F                  
IMPERIAL BEACH MOSUNNY   63  51  65 W14       29.99F                  
BROWN FIELD    SUNNY     64  51  62 W9        29.98S                  
MIRAMAR MCAS   SUNNY     67  51  56 NW10      29.98S                  
MONTGOMERY FLD SUNNY     65  50  58 W9        29.98F                  
GILLESPIE FLD  SUNNY     70  50  49 W12       29.96F                  

$$

NORTH SAN DIEGO COUNTY
  
CITY           SKY/WX    TMP DP  RH WIND       PRES   REMARKS
CAMP PENDLETON SUNNY     64  52  64 W8        29.96F                  
OCEANSIDE AP   SUNNY     63  52  67 MISG      29.97F                  
OCEANSIDE HBR    N/A     62  55  78 NE5       30.00F                  
VISTA            N/A     65  54  66 CALM      29.95F                  
CARLSBAD       MOSUNNY   60  52  74 W8        29.97F                  
DEL MAR          N/A     64  55  73 CALM      30.00F                  
LA JOLLA SCRIP   N/A     60  54  80 W3        29.98F                  
FALLBROOK        N/A     66  55  67 S2        29.95F                  
ESCONDIDO        N/A     68  53  58 W6        29.96F                  
SAN MARCOS       N/A     64  53  66 W5        30.01F                  
POWAY            N/A     69  53  55 CALM      29.96S                  

$$

EAST SAN DIEGO COUNTY
  
CITY           SKY/WX    TMP DP  RH WIND       PRES   REMARKS
RAMONA         SUNNY     70  51  51 W9        29.96F                  
SANTEE LAKES     N/A     68  53  57 W1        29.95F                  
LA MESA          N/A     67  52  57 W8        29.91F                  
JAMUL            N/A     70  53  55 CALM      29.96S                  
CAMPO            N/A     73  43  33 SW21      29.93F                  

$$

ORANGE COUNTY AND THE LOS ANGELES BASIN
  
CITY           SKY/WX    TMP DP  RH WIND       PRES   REMARKS
JOHN WAYNE AP  MOSUNNY   65  52  62 SW9       29.96F                  
LAGUNA BEACH     N/A     66  56  70 CALM      29.92F                  
LAKE FOREST FR   N/A     73  49  42 W3        29.84F                  
HUNTINGTON BCH   N/A     64  56  76 W14       29.97F                  
LOS ALAMITOS   SUNNY     67  51  55 SW9       29.95F                  
FULLERTON      SUNNY     70  52  52 SW7       29.94F                  
LONG BEACH     SUNNY     69  52  54 W9        29.95F                  
L.A. AP        MOSUNNY   62  51  67 W14       29.97F                  
L.A. DOWNTOWN  SUNNY     66  52  60 VRB5      29.96F                  

$$

THE INLAND EMPIRE
  
CITY           SKY/WX    TMP DP  RH WIND       PRES   REMARKS
CORONA         SUNNY     74  50  42 W12G22    29.93F                  
CHINO          SUNNY     78  43  28 W15       29.94F                  
ONTARIO        SUNNY     77  47  34 W13       29.93F                  
SAN BERNARDINO SUNNY     82  34  17 SW9       29.93F                  
RIVERSIDE AP   SUNNY     77  43  29 W14G21    29.93F                  
MORENO VALLEY    N/A     81  51  34 W7        28.06F                  
MARCH ARB      SUNNY     78  43  29 W13       29.93F                  
HORSETHIEF CYN   N/A     77  39  25 NE3       29.92F                  
PERRIS           N/A     78  50  37 W7        29.86F                  
HEMET EAST       N/A     80  40  23 SW6       29.86F                  
FRENCH VALLEY  FAIR      73  45  35 SW12      29.94F                  
TEMECULA         N/A     75  52  43 SW3       29.96S                  

$$

SAN BERNARDINO AND RIVERSIDE COUNTY MOUNTAINS
  
CITY           SKY/WX    TMP DP  RH WIND       PRES   REMARKS
BIG BEAR AP    SUNNY     64  28  25 W13       30.13F                  
ANGELUS OAKS     N/A     67  38  34 CALM      29.82F                  

$$

SOUTHERN DESERT INCLUDING THE COACHELLA VALLEY
  
CITY           SKY/WX    TMP DP  RH WIND       PRES   REMARKS
PALM SPRINGS   SUNNY     96  35  11 NW20G26   29.77F                  
THOUSAND PALMS   N/A     95  38  13 NW14      29.73F                  
PALM DESERT      N/A     98  39  13 NE1         N/A                   
THERMAL        SUNNY    100  30   8 VRB3      29.71F                  
BLYTHE         SUNNY    100  33   9 SW18      29.74F                  
IMPERIAL AP    SUNNY     98  37  12 W5        29.73F                  
EL CENTRO NAS  PTSUNNY   99  28   8 SW10      29.74F                  
YUMA AZ        MOSUNNY   95  41  15 W8        29.76F                  
MEXICALI       PTSUNNY   97  34  11 SE6       29.75F                  

$$

UPPER DESERT
  
CITY           SKY/WX    TMP DP  RH WIND       PRES   REMARKS
VICTORVILLE AP SUNNY     84  28  13 S15       29.91F                  
HESPERIA         N/A     76  35  22 SW7       29.84F                  
APPLE VALLEY     N/A     82  37  20 NW12      29.85F                  
PALMDALE       SUNNY     81  41  24 SW24G32   29.90F                  
LANCASTER      SUNNY     80  41  24 SW24G30   29.90F                  
EDWARDS AFB    SUNNY     85  34  16 SW24G31   29.86F                  
DAGGETT        SUNNY     94  27   9 NW6       29.81F                  
29 PALMS N     MOSUNNY   93  18   6 SW14G21   29.88F                  
NEEDLES        SUNNY    104  11   3 SW12G24   29.74F HX  95           

$$

REGIONAL REPORTS
  
CITY           SKY/WX    TMP DP  RH WIND       PRES   REMARKS
SANTA BARBARA  SUNNY     61  51  70 W12       29.98F                  
SANDBERG         N/A     67  35  30 S14G24    30.04F                  
LAS VEGAS NV   MOSUNNY   94  21   7 VRB5      29.81F                  
PHOENIX AZ     CLOUDY    94  29  10 SW13      29.77S                  
TIJUANA        MOSUNNY   64  52  63 W9        30.00F                  
ENSENADA NW      N/A     62  32  32 W18       29.91F                  

$$

OFFSHORE ISLANDS
  
CITY           SKY/WX    TMP DP  RH WIND       PRES   REMARKS
CATALINA ARPT  SUNNY     54  26  34 W15       29.99F                  
SAN CLEMENTE I PTSUNNY   60  50  69 W15       30.02F                  
SAN NICOLAS IS SUNNY     60  52  74 W17G24    30.00F                  

$$

MARINE AND OFFSHORE BUOY REPORTS
  
STATION/POSITION SKY/WX   TEMP    WIND        PRES    VSBY  SWELL
                          AIR SEA DIR/SP/G                  HT/PER/DIR
                          (F)     (DEG/KT/KT) (MB)    (MI)  (FT/S/D)
TANNER BANKS               58 60              1016.3F
S CLEMENTE BASIN           58 63  290/ 14/ 17 1015.9F         5/210/15
SAN NICOLAS IS.               58                N/A           5/300/13
SO. S. ROSA ISLA           55 56  300/ 12/ 14 1016.2F         5/300/12
W. S. BARBARA CH              56  300/ 16/ 19 1016.0F         7/290/13
M. S. BARBARA CH           54 56  260/ 14/ 16 1016.6F         3/270/13
S. MONICA BASIN                   260/ 12/ 16 1015.1F         3/210/16
S PEDRO CHANNEL               60                N/A           2/160/15
CMP PENDLETON NS              62                N/A           2/210/15
OCEANSIDE OFFSHR              62                N/A           3/180/15
TORREY PINES OTR              62                N/A           3/200/15
SAN DIEGO BAY                 65              1015.1F
POINT LOMA SOUTH              61                N/A           3/190/15

$$

  

SKY/WX - Weather  TMP - Temperature  DP - Dewpoint  RH - Relative Humidity
WIND - Wind Direction/Speed PRES - Barometric Pressure